Volver al catálogo

CZ-6A DEB

ActivoPO
NORAD 61308·DEBRIS·🇨🇳 China

Lanzado Aug 6, 2024 desde Taiyuan Satellite Launch Center

Loading…

Próximos Pases (próximas 24 horas)

TLE

ActualizadoSource: Space-Track

Época: Sep 14, 2026, 09:44 UTC

1 61308U 24140TV  26257.40557902  .00001876  00000-0  32376-3 0  9999
2 61308  88.8954 248.7775 0125611 292.5669  66.2293 14.62973082109074

Sigue CZ-6A DEB en tiempo real con AllMySat

Download on the App Store